sat.trackr.live / text

‹ back to catalog

STARLINK-1316

NORAD 45415 · 2020-019BH

PAYLOAD ACTIVE UNKNOWN

§ Identity

Operator
Country
US
Launch date
2020-03-18
Launch site
AFETR
Launch vehicle
Mass (kg)
RCS (m²)

Purposes: comms

External: N2YO · Heavens-Above · Gunter

§ Orbital elements

Epoch: 2026-09-20T01:33:55.827072Z

Period
92.98 min
Inclination
53.1502°
Eccentricity
0.0005758
Mean motion
15.48648283 rev/d
Perigee alt
416.8 km
Apogee alt
424.6 km
Semi-major
6,798.8 km
B*
1.0205e-3
RAAN
293.7195°
Arg perigee
31.7150°
Mean anomaly
328.4204°
Rev number
35,993

§ Raw data

STARLINK-13161 45415U 20019BH  26263.06522948  .00055431  00000+0  10205-2 0  99932 45415  53.1502 293.7195 0005758  31.7150 328.4204 15.48648283359936

JSON: /api/v1/satellites/45415 · /tle

For live sub-satellite position, see the globe view (requires WebGL).

§ Visibility from observer

Set your observer location to see the next 7 days of passes ≥ 10°. The values pass through the URL so the page stays shareable.

No JS? Fill the form by hand. The geolocation button needs JavaScript.